Home > Weather > Fushun > Past weeks

Flag for China Weather for the Past 2 Weeks in Fushun, Liaoning, China

Now
12 °F

Clear.


Feels Like: 3 °F
Forecast: 8 / 34 °F
Wind: 6 mph from South

Location: Shenyang / Taoxian

Current Time: Feb 7, 2016 at 12:39:24 AM

Latest Report: Feb 7, 2016 at 12:00 AM


Visibility: 10 mi

Pressure: 30.24 "Hg

Humidity: 57%

Dew point: 0 °F

Location of FushunLocation

Historic Weather in Fushun — Graph

°F

Fushun Temperature Yesterday

Maximum temperature yesterday: 28 °F (at 2:30 PM)
Minimum temperature yesterday: 1 °F (at 6:00 AM)
Average temperature yesterday: 14 °F

High & Low Weather Summary for the Past Weeks

 TemperatureHumidityPressure
High36 °F (Feb 3, 1:30 PM)85% (Feb 5, 3:00 AM)30.74 "Hg (Feb 5, 3:00 AM)
Low-13 °F (Jan 23, 6:30 AM)17% (Jan 29, 2:30 PM)30.24 "Hg (Jan 25, 2:30 PM)
Average10 °F44%30.42 "Hg
* Reported Jan 22 11:00 PM — Feb 6 11:30 PM, Fushun, Weather by CustomWeather, © 2016

Note: Actual official high and low records may vary slightly from our data, if they occured in-between our weather recording intervals... More about our weather records

Advertising

Fushun Weather History for the Previous 24 Hours

 ConditionsComfort  
Time TempWeatherWind HumidityBarometerVisibility
11:30 PM
Sat, Feb 6
12 °FClear.6 mph57%30.27 "Hg10 mi
11:00 PM9 °FClear.1 mph61%30.27 "Hg10 mi
10:30 PM12 °FClear.3 mph57%30.27 "Hg10 mi
10:00 PM14 °FClear.6 mph52%30.27 "Hg10 mi
9:30 PM14 °FClear.3 mph52%30.27 "Hg10 mi
9:00 PM14 °FClear.6 mph52%30.27 "Hg10 mi
8:30 PM16 °FClear.6 mph48%30.30 "Hg10 mi
8:00 PM16 °FClear.6 mph48%30.30 "Hg10 mi
7:30 PM19 °FClear.6 mph42%30.30 "Hg10 mi
7:00 PM19 °FClear.3 mph42%30.30 "Hg10 mi
6:30 PM19 °FClear.3 mph42%30.30 "Hg10 mi
6:00 PM21 °FClear.3 mph38%30.30 "Hg10 mi
5:30 PM23 °FClear.3 mph36%30.30 "Hg10 mi
5:00 PM23 °FSunny.3 mph36%30.30 "Hg10 mi
4:30 PM27 °FPassing clouds.3 mph31%30.30 "HgN/A
4:00 PM28 °FSunny.1 mph31%30.30 "Hg10 mi
3:30 PM28 °FPassing clouds.3 mph31%30.30 "HgN/A
3:00 PM28 °FPassing clouds.6 mph31%30.30 "HgN/A
2:30 PM28 °FPassing clouds.3 mph31%30.30 "HgN/A
2:00 PM27 °FPassing clouds.3 mph33%30.33 "HgN/A
1:30 PM27 °FPassing clouds.6 mph33%30.33 "HgN/A
1:00 PM25 °FPassing clouds.6 mph36%30.33 "HgN/A
12:00 PM25 °FPassing clouds.6 mph39%30.36 "HgN/A
11:30 AM23 °FPassing clouds.6 mph42%30.36 "HgN/A
11:00 AM21 °FClear.6 mph45%30.36 "Hg4 mi
10:00 AM18 °FClear.3 mph53%30.36 "Hg4 mi
9:00 AM14 °FClear.1 mph62%30.36 "Hg3 mi
8:30 AM9 °FClear.3 mph66%30.36 "Hg3 mi
8:00 AM5 °FClear.1 mph72%30.36 "Hg3 mi
7:30 AM1 °FClear.1 mph71%30.33 "Hg4 mi
7:00 AM1 °FClear.1 mph71%30.33 "Hg4 mi
6:30 AM1 °FClear.No wind71%30.33 "Hg4 mi
6:00 AM1 °FClear.No wind71%30.33 "Hg10 mi
5:30 AM3 °FClear.1 mph66%30.30 "Hg10 mi
5:00 AM3 °FClear.1 mph72%30.30 "Hg10 mi
4:30 AM3 °FClear.1 mph72%30.30 "Hg10 mi
4:00 AM3 °FPassing clouds.3 mph72%30.30 "HgN/A
3:30 AM3 °FClear.3 mph72%30.30 "Hg10 mi
3:00 AM3 °FClear.1 mph72%30.30 "Hg10 mi
2:30 AM3 °FClear.3 mph72%30.30 "Hg10 mi
2:00 AM3 °FClear.1 mph66%30.30 "Hg10 mi
1:30 AM7 °FClear.3 mph66%30.30 "Hg4 mi
1:00 AM5 °FClear.3 mph66%30.30 "Hg4 mi
12:30 AM5 °FClear.1 mph66%30.30 "Hg4 mi
12:00 AM5 °FClear.1 mph66%30.30 "Hg4 mi
Weather by CustomWeather, © 2016

See weather overviewHow to use our weather pages